Location: Allie Creek
(37.5926°N, 89.8526°W)
Time: 12:39:14
(UTC+00:00)

SL-16 R/B - Pass Details

Date: 26 September 2023
Orbit: 842 x 845 km, 71.0° (Epoch: 28 November)

Event Time Altitude Azimuth Distance (km) Brightness Sun altitude
Rises 10:08:49 0° 329° (NNW) 3,409 5.2 -20.7°
Reaches altitude 10° 10:11:25 10° 321° (NW) 2,470 4.4 -20.3°
Maximum altitude 10:16:36 38° 255° (WSW) 1,268 2.6 -19.3°
Drops below altitude 10° 10:21:45 10° 189° (S) 2,457 4.4 -18.3°
Sets 10:24:20 0° 181° (S) 3,388 5.2 -17.8°
